Regional Weather Roundup
Issued by NWS

Home | Current Version | Previous Version | Graphics & Text | Print | Product List | Glossary On
Versions: 1 2 3 4 5 6 7 8 9 10 11 12 13 14 15 16 17 18 19 20 21 22 23 24 25 26 27 28 29 30 31 32 33 34 35 36 37 38 39 40 41 42 43 44 45 46 47 48 49 50
000
ASUS43 KLSX 161307
RWRMO

WEATHER SUMMARY FOR MISSOURI
NATIONAL WEATHER SERVICE SPRINGFIELD MO
800 AM CDT TUE SEP 16 2014

NOTE: "FAIR" INDICATES FEW OR NO CLOUDS BELOW 12,000 FEET WITH NO
       SIGNIFICANT WEATHER AND/OR OBSTRUCTIONS TO VISIBILITY.
       CURRENT SKY AND/OR WEATHER CONDITIONS ARE NOT AVAILABLE FOR
       CHILLICOTHE AND FARMINGTON.

MOZ001>031-035>038-043-044-053-054-161400-
...NORTHERN AND WESTERN MISSOURI...

CITY           SKY/WX    TMP DP  RH WIND       PRES   REMARKS
KANSAS CTY INT SUNNY     50  48  93 NE7       30.25S
KANSAS C DTWN  SUNNY     52  48  86 NE3       30.25R
LEE`S SUMMIT   SUNNY     50  48  93 NE5       30.25S
ST JOSEPH      MOSUNNY   43  43 100 CALM      30.26S
CHILLICOTHE      N/A     48  46  93 CALM      30.27S
KIRKSVILLE     SUNNY     47  46  97 CALM      30.26F

$$
MOZ066>068-077>081-088>096-101>105-161400-
...SOUTHWEST MISSOURI...

CITY           SKY/WX    TMP DP  RH WIND       PRES   REMARKS
SPRINGFIELD    CLOUDY    63  58  83 NE7       30.19R
JOPLIN         CLOUDY    59  57  93 N7        30.20S

$$
MOZ032>034-039>042-045>050-055>058-069>072-161400-
...CENTRAL MISSOURI...

CITY           SKY/WX    TMP DP  RH WIND       PRES   REMARKS
COLUMBIA       CLOUDY    54  51  90 NE6       30.24R
JEFFERSON CITY CLOUDY    57  51  80 NE3       30.24R
ROLLA          CLOUDY    55  54  96 NE9       30.20S FOG
SEDALIA        CLOUDY    57  51  80 NE7       30.24S
WHITEMAN AFB   CLOUDY    55  51  86 NE6       30.23S
OSAGE BEACH    CLOUDY    57  54  88 NE8       30.22S

$$
MOZ051-052-059>065-161400-
...EAST CENTRAL MISSOURI...

CITY           SKY/WX    TMP DP  RH WIND       PRES   REMARKS
ST LOUIS INTL  DRIZZLE   58  55  90 E6        30.23S FOG
SPIRIT OF STL  CLOUDY    58  55  90 E8        30.22R FOG
ST CHARLES     CLOUDY    57  54  89 E6        30.22S

$$
MOZ072>076-082>087-097>100-106>115-161400-
...SOUTH CENTRAL AND SOUTHEAST MISSOURI...

CITY           SKY/WX    TMP DP  RH WIND       PRES   REMARKS
CAPE GIRARDEAU CLOUDY    61  55  81 NE14      30.18S
FARMINGTON     CLOUDY    57  54  88 NE7       30.23S
POPLAR BLUFF   CLOUDY    63  54  72 NE8       30.16S
WEST PLAINS    CLOUDY    62  56  80 NE6       30.20R

$$



USA.gov is the U.S. government's official web portal to all federal, state and local government web resources and services.